Location: Newark
(52.8300°N, 8.0000°E)
Time: 12:31:44
(UTC+00:00)

STARLINK-1090 - Pass Details

Date: 31 January 2020
Orbit: 349 x 351 km, 53.0° (Epoch: 21 February)

Event Time Altitude Azimuth Distance (km) Brightness Sun altitude
Rises 16:52:57 0° 283° (WNW) 2,178 7.7 -6.7°
Reaches altitude 10° 16:55:01 10° 277° (W) 1,332 6.8 -7.0°
Maximum altitude 16:57:52 45° 203° (SSW) 501 3.8 -7.4°
Drops below altitude 10° 17:00:42 10° 129° (SE) 1,328 5.3 -7.8°
Enters shadow 17:02:28 - 124° (SE) 2,045 6.2 -8.1°
